Location: Marseilles
(40.7010°N, 83.3930°W)
Time: 07:14:26
(UTC-04:00)

Cosmos 1459 Rocket - Visible Passes

Search period start: 27 June 2016 00:00
Search period end: 07 July 2016 00:00
Orbit: 938 x 1000 km, 83.0° (Epoch: 26 June)

Date Brightness Start Highest point End Pass type
(mag) Time Alt. Az. Time Alt. Az. Time Alt. Az.
27 Jun 4.7 04:43:17 10° SSE 04:49:29 57° E 04:55:38 10° NNE visible
28 Jun 6.5 03:25:26 10° ESE 03:28:29 14° E 03:31:32 10° NE visible
28 Jun 4.1 05:06:28 10° S 05:12:50 84° W 05:19:11 10° N visible
29 Jun 5.9 03:46:29 10° SE 03:51:29 25° E 03:56:28 10° NNE visible
29 Jun 4.4 05:30:14 10° SSW 05:36:21 49° WNW 05:42:26 10° N visible
30 Jun 5.0 04:08:42 10° SSE 04:14:38 44° E 04:20:32 10° NNE visible
01 Jul 4.2 04:31:36 10° S 04:37:56 77° E 04:44:13 10° N visible
02 Jul 6.1 03:12:29 10° SE 03:16:45 19° E 03:20:59 10° NE visible
02 Jul 4.1 04:55:16 11° SSW 05:01:22 63° W 05:07:36 10° N visible
03 Jul 5.4 03:34:25 11° SSE 03:39:50 34° E 03:45:21 10° NNE visible
03 Jul 4.7 05:19:11 10° SW 05:24:57 36° WNW 05:30:41 10° N visible
04 Jul 4.5 03:58:05 16° SSE 04:03:03 59° E 04:09:11 10° NNE visible
05 Jul 6.3 02:38:53 10° ESE 02:42:02 14° E 02:45:10 10° NE visible
05 Jul 4.0 04:21:44 19° S 04:26:25 81° W 04:32:42 10° N visible
06 Jul 5.7 03:00:49 13° SE 03:05:02 26° E 03:10:02 10° NNE visible
06 Jul 4.4 04:45:21 17° SW 04:49:56 47° WNW 04:55:56 10° N visible
